Location: Marcé
(47.5801°N, 0.3280°W)
Time: 21:18:11
(UTC+01:00)

Explorer 7 - Pass Details

Date: 05 December 2021
Orbit: 483 x 674 km, 50.3° (Epoch: 17 January)

Event Time Altitude Azimuth Distance (km) Brightness Sun altitude
Rises 07:54:27 0° 258° (WSW) 2,801 - -6.5°
Exits shadow 07:54:53 - 258° (WSW) 2,628 9.8 -6.4°
Reaches altitude 10° 07:56:48 10° 261° (W) 1,869 9.0 -6.2°
Maximum altitude 08:01:02 72° 345° (NNW) 575 6.8 -5.5°
Drops below altitude 10° 08:05:02 10° 71° (ENE) 1,760 10.1 -4.9°
Sets 08:07:11 0° 74° (ENE) 2,622 11.0 -4.6°
